Regional Weather Roundup
Issued by NWS

Home | Current Version | Previous Version | Text Only | Print | Product List | Glossary On
Versions: 1 2 3 4 5 6 7 8 9 10 11 12 13 14 15 16 17 18 19 20 21 22 23 24 25 26 27 28 29 30 31 32 33 34 35 36 37 38 39 40 41 42 43 44 45 46 47 48 49 50
000
ASMX46 KSGX 301303
RWRMX

MEXICAN WEATHER ROUNDUP
NATIONAL WEATHER SERVICE SAN DIEGO CA
600 AM PDT THU OCT 30 2014

BAJA CALIFORNIA

CITY           SKY/WX    TMP DP  RH WIND       PRES   REMARKS
ENSENADA NW      N/A     65  32  29 N1        29.95R
S.J. DEL CABO  CLEAR     70  68  94 CALM      29.95
TIJUANA        PTCLDY    57  50  77 CALM      30.00R

NORTHWESTERN MEXICO

CITY           SKY/WX    TMP DP  RH WIND       PRES   REMARKS
CHIHUAHUA      CLEAR     48  46  93 SW5       30.22
JUAREZ         CLEAR     55  39  54 N6        30.10

NORTHEASTERN MEXICO

CITY           SKY/WX    TMP DP  RH WIND       PRES   REMARKS
MATAMOROS      PTCLDY    70  70 100 CALM      30.08  FOG
MONCLOVA         N/A    N/A N/A N/A MISG        N/A
MONTERREY      CLEAR     64  63  94 NW5       30.08R
NUEVO LAREDO   CLEAR     68  63  83 CALM      30.07
PIEDRAS NEGRAS CLEAR     64  63  94 E6        30.11  FOG
REYNOSA        CLEAR     66  63  88 CALM      30.06
SALTILLO       CLEAR     54  48  82 CALM      30.25R
TORREON        MOCLDY    63  52  67 CALM      30.16
VICTORIA       FOG       63  63 100 S3        30.08  VSB 1/8

WESTERN MEXICO

CITY           SKY/WX    TMP DP  RH WIND       PRES   REMARKS
AGUASCALIENTES CLEAR     45  34  65 N8        30.31
COLIMA         PTCLDY    72  63  73 CALM      30.01F
DURANGO        CLEAR     43  39  87 SE3       30.29R
GUADALAJARA    MOCLDY    57  52  82 SE3       30.21
MAZATLAN       PTCLDY    70  66  88 N8        29.89R
PTO. VALLARTA  CLEAR     77  75  94 CALM      29.89R
URUAPAN        MOCLDY    54  54 100 CALM      30.18
ZACATECAS      CLEAR     37  28  70 CALM      30.32

CENTRAL MEXICO

CITY           SKY/WX    TMP DP  RH WIND       PRES   REMARKS
CUERNAVACA       N/A    N/A N/A N/A MISG        N/A
LEON           CLEAR     41  32  70 CALM      30.33R
MEXICO CITY    FOG       43  43 100 NE6       30.36R VSB 1/8
MORELIA        CLEAR     36  36 100 CALM      30.28
POZA RICA      CLOUDY    73  72  94 NW9       30.06F FOG
PUEBLA         CLEAR     43  39  87 NW8       30.33R
QUERETARO      PTCLDY    41  41 100 CALM      30.36R
S. LUIS POTOSI FOG       41  41 100 CALM      30.32  VSB 1/2
TAMPICO        MOCLDY    72  70  94 W5        30.04R
TOLUCA         PTCLDY    36  32  87 CALM      30.40
VERACRUZ       CLOUDY    75  70  83 N8        29.99R

SOUTHERN MEXICO

CITY           SKY/WX    TMP DP  RH WIND       PRES   REMARKS
ACAPULCO       PTCLDY    75  70  83 N5        29.85R
B. DE HUATULCO MOCLDY    75  64  69 CALM      29.88
MINATITLAN     MOCLDY    73  64  73 NW12      29.94
OAXACA         PTCLDY    52  48  87 SW5       30.23R
PTO. ESCONDIDO   N/A    N/A N/A N/A MISG        N/A
TAPACHULA      MOSUNNY   75  75 100 E12         N/A
TUX. GUTIERREZ PTSUNNY   68  68 100 CALM      29.98R
VILLAHERMOSA   PTSUNNY   73  72  94 CALM      29.96R
ZIHUATANEJO    CLEAR     75  70  83 CALM      29.88

YUCATAN PENINSULA

CITY           SKY/WX    TMP DP  RH WIND       PRES   REMARKS
CAMPECHE       PTSUNNY   73  73 100 NE7       29.95R FOG
CANCUN         MOSUNNY   73  72  94 NW6       29.96R
CHETUMAL       PTSUNNY   73  68  83 CALM      29.93R
C. DEL CARMEN  PTSUNNY   77  73  88 E6        29.94
COZUMEL        MOSUNNY   75  73  94 N6        29.95R
MERIDA         PTSUNNY   73  72  94 CALM      29.98R

$$




USA.gov is the U.S. government's official web portal to all federal, state and local government web resources and services.